KCNOKOXR

Guest
Details From KCNO - Chino
To KOXR - Oxnard
Flight Number -
Tags decoded
Created
Modified
Stats Distance 81 nm / 151 km
Max Altitude 0 ft / 0 m
Waypoints 4
Social Downloads 2
Likes 0
Share VATSIM

Download

Looking for another format? Having issues loading an existing format? Contact us
Advertisement - Login to hide

Notes

Requested: KCNO POM VNY KOXR

Route

KCNO POM VNY KOXR

ID Type Via Altitude Latitude Longitude Leg Dist Tot Dist Heading (true) Name
O KCNO APT - 0 ft / 0 m 33.97495˚ -117.63668˚ - 0 nm - Chino
POM VOR - 0 ft / 0 m 34.07839˚ -117.78708˚ 9 nm 9 nm 310° / 310° POMONA VORTAC
VNY VOR - 0 ft / 0 m 34.22347˚ -118.49167˚ 36 nm 45 nm 284° / 284° VAN NUYS VOR-DME
O KOXR APT - 0 ft / 0 m 34.20082˚ -119.20723˚ 35 nm 81 nm 268° / 268° Oxnard

Altitude Profile

Advertisement - Login to hide

KCNO

Details ICAO KCNO
Name Chino
Region United States
Timezone America/Los_Angeles (UTC-7.0)
Stats Elevation 650 ft / 198 m (AMSL)
Location 33.974954° -117.636684°
Runways 3
Magnetic Variation 11.817° E

METAR

KCNO 210253Z 26010KT 10SM SCT040 BKN200 17/12 A2988 RMK AO2 SLP114 T01720122 55000

Decode

TAF

Not found

Departure Runways

ID Width Length Bearing (true) Bearing (mag) Surface Threshold Offset Overrun Length
03 151 ft / 46 m 4,921 ft / 1,500 m 44.28° 32.46° Asphalt 0 ft / 0 m 951 ft / 290 m
08L 151 ft / 46 m 4,849 ft / 1,478 m 89.42° 77.60° Asphalt 0 ft / 0 m 200 ft / 61 m
08R 151 ft / 46 m 6,987 ft / 2,130 m 89.42° 77.60° Asphalt 0 ft / 0 m 200 ft / 61 m
21 151 ft / 46 m 4,921 ft / 1,500 m 224.28° 212.46° Asphalt 0 ft / 0 m 351 ft / 107 m
26L 151 ft / 46 m 6,987 ft / 2,130 m 269.43° 257.61° Asphalt 0 ft / 0 m 220 ft / 67 m
26R 151 ft / 46 m 4,849 ft / 1,478 m 269.42° 257.60° Asphalt 0 ft / 0 m 0 ft / 0 m

KOXR

Details ICAO KOXR (OXR)
Name Oxnard
Region United States
Timezone America/Los_Angeles (UTC-7.0)
Stats Elevation 43 ft / 13 m (AMSL)
Location 34.200819° -119.207233°
Runways 1
Magnetic Variation 12.173° E

METAR

KOXR 210251Z 27012KT 10SM OVC037 15/11 A2988 RMK AO2 SLP118 T01500111 56006

Decode

TAF

TAF KOXR 202338Z 2100/2124 27012KT P6SM BKN040 FM210300 28006KT P6SM BKN050 FM210600 VRB03KT P6SM OVC025 FM211700 26008KT P6SM OVC025 FM212000 27012KT P6SM BKN035 BKN250

Decode

Destination Runways

ID Width Length Bearing (true) Bearing (mag) Surface Threshold Offset Overrun Length
07 98 ft / 30 m 5,953 ft / 1,815 m 90.53° 78.36° Asphalt 0 ft / 0 m 0 ft / 0 m
25 98 ft / 30 m 5,953 ft / 1,815 m 270.54° 258.37° Asphalt 1,378 ft / 420 m 0 ft / 0 m

Approach Navaids

Runway Type Ident Frequency Range Bearing (true) Bearing (mag) Slope Elevation
25 Localiser IOXR 108.70 MHz 18 nm / 33 km 270.48° 258.30° - 28 ft / 9 m (AMSL)
25 Glidescope IOXR 108.70 MHz 10 nm / 19 km 270.53° 258.36° 3.00° 41 ft / 12 m (AMSL)

Popular Alternatives